www.pogodaiklimat.ru

Погода и климат >> Архив погоды >> Австралия >> Moomba Airport


ПОГОДА в Moomba Airport

  • Прогноз погоды в Moomba Airport
  • Монитор погоды в Moomba Airport
  • Климат города

АРХИВ ПОГОДЫ в Moomba Airport

Время (UTC), дата Ветер
(напр.,м/с)
 
Видим.   Явления Облачность Т
(С)
Тd
(С)
f
(%)
Тe
(С)
Тes
(С)
Комфортность P
(гПа)
Po
(гПа)
Тmin
(С)
Tmax
(С)
R
(мм)
R24
(мм)
S
(см)
04 23.04 В 3 н/о н/о +30.7 +13.5 35 +32 +32 жарко 1016.9 1012.4
05 23.04 В 2 н/о н/о +30.3 +12.2 33 +31 +31 жарко 1016.5 1012.0
06 23.04 ЮВ 1 н/о н/о +30.9 +11.8 31 +31 +31 жарко 1016.3 1011.8
07 23.04 В 4 н/о н/о +29.7 +12.6 35 +31 +31 жарко 1016.4 1011.9
08 23.04 В 4 н/о н/о +28.5 +13.2 39 +30 +30 жарко 1016.8 1012.3
09 23.04 СВ 3 н/о н/о +26.4 +13.5 45 +28 +28 жарко 1017.4 1012.9
10 23.04 СВ 2 н/о н/о +25.3 +13.8 49 +28 +28 жарко 1017.9 1013.4
11 23.04 ЮВ 3 н/о н/о +24.8 +14.0 51 +27 +27 жарко 1018.2 1013.7
12 23.04 ЮВ 3 н/о н/о +23.9 +13.7 53 +26 +26 жарко 1018.4 1013.9
13 23.04 ЮВ 3 н/о н/о +23.1 +14.1 57 +27 +27 душно 1017.8 1013.3
14 23.04 В 3 н/о н/о +21.9 +13.8 60 +25 +25 комфорт 1017.9 1013.4
15 23.04 В 2 н/о н/о +20.5 +13.7 65 +24 +24 комфорт 1017.5 1013.0
16 23.04 В 3 н/о н/о +19.6 +13.8 69 +22 +22 комфорт 1017.0 1012.5
17 23.04 В 3 н/о н/о +19.4 +14.2 72 +21 +21 комфорт 1016.3 1011.8
18 23.04 В 3 н/о н/о +18.8 +14.3 75 +20 +20 1016.1 1011.6
19 23.04 В 3 н/о н/о +17.8 +13.7 77 +18 +18 1015.7 1011.2
20 23.04 В 3 н/о н/о +17.6 +13.1 75 +18 +18 1016.0 1011.5
21 23.04 В 3 н/о н/о +17.4 +13.1 76 +17 +17 1016.5 1012.0
22 23.04 В 3 н/о н/о +19.8 +13.5 67 +22 +22 комфорт 1016.9 1012.4
23 23.04 СВ 4 н/о н/о +24.0 +13.8 53 +26 +26 жарко 1017.3 1012.8
00 24.04 СВ 5 н/о н/о +27.7 +13.6 42 +30 +30 жарко 1017.0 1012.5
01 24.04 СВ 5 н/о н/о +30.1 +13.0 35 +31 +31 жарко 1016.5 1012.0
02 24.04 С 5 н/о н/о +31.7 +12.0 30 +32 +32 жарко 1015.6 1011.1
03 24.04 С 3 н/о н/о +32.3 +11.5 28 +32 +32 жарко 1014.3 1009.8
04 24.04 С 3 н/о н/о +32.8 +10.2 25 +32 +32 жарко 1013.3 1008.8
05 24.04 С 3 н/о н/о +32.3 +10.4 26 +32 +32 жарко 1012.8 1008.3
06 24.04 СЗ 3 н/о н/о +32.2 +10.3 26 +32 +32 жарко 1012.4 1007.9
07 24.04 СЗ 3 н/о н/о +31.7 +10.4 27 +31 +31 жарко 1012.3 1007.8
08 24.04 СЗ 2 н/о н/о +30.7 +10.6 29 +31 +31 жарко 1012.4 1007.9
09 24.04 штиль 0 н/о н/о +29.4 +11.9 34 +30 +30 жарко 1012.9 1008.4
10 24.04 СВ 2 н/о н/о +27.5 +11.1 36 +28 +28 жарко 1013.0 1008.5
11 24.04 штиль 0 н/о н/о +26.8 +11.3 38 +28 +28 жарко 1012.9 1008.4
12 24.04 В 2 н/о н/о +25.4 +11.2 41 +27 +27 жарко 1012.9 1008.4
13 24.04 ЮВ 3 н/о н/о +25.2 +13.1 47 +27 +27 жарко 1012.6 1008.1
14 24.04 З 2 н/о н/о +24.4 +14.8 55 +27 +27 жарко 1013.2 1008.7
15 24.04 ЮЗ 5 н/о н/о +23.4 +16.0 63 +28 +28 душно 1013.6 1009.1
16 24.04 ЮЗ 6 н/о н/о +22.1 +17.9 77 +27 +27 душно 1013.4 1008.9
17 24.04 Ю 7 н/о н/о +20.6 +18.2 86 +24 +24 комфорт 1013.2 1008.7
18 24.04 Ю 7 н/о н/о +20.3 +18.6 90 +23 +23 комфорт 1012.8 1008.3
19 24.04 Ю 7 н/о н/о +20.0 +18.3 90 +23 +23 комфорт 1013.3 1008.8
20 24.04 Ю 5 н/о н/о +19.4 +18.1 92 +21 +21 комфорт 1013.5 1009.0
21 24.04 Ю 5 н/о н/о +19.3 +18.3 94 +21 +21 комфорт 1014.6 1010.1
22 24.04 ЮВ 5 н/о н/о +19.6 +18.4 93 +22 +22 комфорт 1014.6 1010.1
23 24.04 ЮВ 5 н/о н/о +20.2 +18.7 91 +24 +24 комфорт 1015.1 1010.6
00 25.04 Ю 3 н/о н/о +21.1 +19.9 93 +26 +26 душно 1015.1 1010.6
01 25.04 ЮЗ 5 н/о н/о +21.0 +19.8 93 +26 +26 душно 1015.2 1010.7
02 25.04 ЮЗ 4 н/о н/о +22.1 +19.3 84 +28 +28 душно 1014.8 1010.3
03 25.04 ЮЗ 4 н/о н/о +20.4 +20.4 100 +25 +25 комфорт 1014.3 1009.8
04 25.04 ЮЗ 4 н/о н/о +21.7 +20.9 95 +28 +28 душно 1013.7 1009.2
05 25.04 ЮЗ 6 н/о н/о +22.7 +19.1 80 +29 +29 очень
душно
1013.2 1008.7
06 25.04 ЮЗ 6 н/о н/о +23.3 +18.0 72 +29 +29 душно 1013.0 1008.5
07 25.04 ЮЗ 4 н/о н/о +23.2 +16.7 67 +28 +28 душно 1013.2 1008.7
08 25.04 ЮЗ 3 н/о н/о +22.7 +16.9 70 +27 +27 душно 1013.4 1008.9
09 25.04 З 3 н/о н/о +21.0 +16.6 76 +25 +25 комфорт 1014.1 1009.6
10 25.04 ЮЗ 6 н/о н/о +20.6 +14.9 70 +23 +23 комфорт 1014.8 1010.3
11 25.04 ЮЗ 6 н/о н/о +19.6 +14.0 70 +21 +21 комфорт 1015.4 1010.9
12 25.04 ЮЗ 6 н/о н/о +18.7 +12.9 69 +19 +19 1015.8 1011.3
13 25.04 ЮЗ 4 н/о н/о +17.4 +12.9 75 +17 +17 1016.3 1011.8
14 25.04 ЮЗ 6 н/о н/о +17.3 +12.6 74 +16 +16 1016.6 1012.1
15 25.04 ЮЗ 5 н/о н/о +16.6 +12.8 78 +16 +16 1016.6 1012.1
16 25.04 ЮЗ 5 н/о н/о +15.6 +13.1 85 +14 +14 1016.7 1012.2
17 25.04 ЮЗ 4 н/о н/о +14.8 +13.2 90 +14 +14 1016.9 1012.4
18 25.04 ЮЗ 4 н/о н/о +14.3 +12.7 90 +13 +13 1016.9 1012.4
19 25.04 ЮЗ 6 н/о н/о +14.7 +12.4 86 +13 +13 1017.1 1012.6
20 25.04 ЮЗ 5 н/о н/о +13.8 +12.2 90 +12 +12 1017.8 1013.3
21 25.04 ЮЗ 5 н/о н/о +13.1 +12.2 94 +11 +11 1018.6 1014.1
22 25.04 ЮЗ 5 н/о н/о +13.8 +12.5 92 +12 +12 1019.0 1014.5
23 25.04 ЮЗ 7 н/о н/о +15.8 +12.2 79 +14 +14 1019.5 1015.0
00 26.04 ЮЗ 8 н/о н/о +17.3 +10.9 66 +16 +16 1019.6 1015.1
01 26.04 ЮЗ 9 н/о н/о +19.2 +10.2 56 +19 +19 1019.4 1014.9
02 26.04 Ю 8 н/о н/о +20.4 +10.2 52 +22 +22 комфорт 1019.3 1014.8
03 26.04 ЮЗ 7 н/о н/о +21.8 +9.7 46 +23 +23 комфорт 1018.4 1013.9
04 26.04 ЮЗ 8 н/о н/о +21.8 +8.7 43 +23 +23 комфорт 1017.9 1013.4
05 26.04 ЮЗ 7 н/о н/о +22.2 +7.2 38 +23 +23 комфорт 1017.9 1013.4
06 26.04 Ю 6 н/о н/о +21.5 +8.4 43 +23 +23 комфорт 1017.8 1013.3
07 26.04 Ю 8 н/о н/о +20.5 +7.5 43 +21 +21 комфорт 1018.1 1013.6
08 26.04 Ю 8 н/о н/о +18.6 +5.8 43 +18 +18 1018.9 1014.4
09 26.04 Ю 7 н/о н/о +17.2 +4.2 42 +16 +16 1019.8 1015.3
10 26.04 Ю 6 н/о н/о +16.3 +2.7 40 +15 +15 1021.0 1016.5
11 26.04 Ю 6 н/о н/о +15.9 +3.4 43 +15 +15 1021.9 1017.4
12 26.04 Ю 7 н/о н/о +15.3 +2.8 43 +14 +14 1022.3 1017.8
13 26.04 Ю 5 н/о н/о +14.7 +2.9 45 +13 +13 1023.0 1018.5
14 26.04 Ю 5 н/о н/о +14.3 +3.5 48 +13 +13 1023.3 1018.8
15 26.04 Ю 3 н/о н/о +12.2 +4.4 59 +11 +11 1023.6 1019.1
16 26.04 Ю 3 н/о н/о +11.1 +5.0 66 +9 +9 1023.5 1019.0
17 26.04 Ю 3 н/о н/о +10.4 +4.8 68 +8 +8 1023.3 1018.8
18 26.04 Ю 3 н/о н/о +9.6 +4.6 71 +7 +7 1023.5 1019.0
19 26.04 Ю 3 н/о н/о +9.1 +4.9 75 +7 +7 1024.0 1019.5
20 26.04 Ю 4 н/о н/о +8.6 +5.2 79 +6 +6 1024.4 1019.9
21 26.04 Ю 4 н/о н/о +8.4 +5.3 81 +5 +5 1025.0 1020.5
22 26.04 Ю 5 н/о н/о +9.6 +6.0 78 +7 +7 1025.5 1021.0
23 26.04 Ю 7 н/о н/о +12.7 +5.4 61 +10 +10 1026.1 1021.6
00 27.04 Ю 7 н/о н/о +14.5 +4.2 50 +13 +13 1026.5 1022.0
01 27.04 ЮВ 7 н/о н/о +15.9 +3.0 42 +14 +14 1026.4 1021.9
02 27.04 Ю 8 н/о н/о +16.6 +1.1 35 +15 +15 1025.7 1021.2
03 27.04 Ю 8 н/о н/о +18.2 +1.3 32 +17 +17 1024.9 1020.4
04 27.04 Ю 7 н/о н/о +18.3 +0.9 31 +18 +18 1024.0 1019.5
05 27.04 Ю 7 н/о н/о +19.0 +1.1 30 +19 +19 1023.6 1019.1
06 27.04 Ю 8 н/о н/о +18.8 +1.8 32 +18 +18 1023.5 1019.0
07 27.04 Ю 7 н/о н/о +18.3 +2.2 34 +18 +18 1023.4 1018.9
08 27.04 Ю 7 н/о н/о +17.6 +2.4 36 +17 +17 1023.8 1019.3
09 27.04 Ю 5 н/о н/о +16.4 +3.1 41 +16 +16 1024.5 1020.0
10 27.04 Ю 4 н/о н/о +15.4 +3.9 46 +15 +15 1025.1 1020.6
11 27.04 Ю 3 н/о н/о +14.1 +3.8 50 +14 +14 1025.9 1021.4
12 27.04 Ю 4 н/о н/о +13.3 +4.7 56 +12 +12 1026.2 1021.7
13 27.04 Ю 3 н/о н/о +12.1 +5.0 62 +11 +11 1026.2 1021.7
14 27.04 Ю 4 н/о н/о +11.3 +5.0 65 +9 +9 1025.6 1021.1
15 27.04 Ю 4 н/о н/о +11.0 +5.5 69 +9 +9 1025.4 1020.9
16 27.04 Ю 3 н/о н/о +10.7 +5.5 70 +9 +9 1025.5 1021.0
17 27.04 Ю 4 н/о н/о +10.7 +5.5 70 +8 +8 1025.2 1020.7
18 27.04 Ю 3 н/о н/о +8.6 +5.0 78 +6 +6 1025.1 1020.6
19 27.04 Ю 3 н/о н/о +8.7 +5.1 78 +7 +7 1025.7 1021.2
20 27.04 Ю 3 н/о н/о +8.0 +5.5 84 +6 +6 1026.2 1021.7
21 27.04 Ю 3 н/о н/о +8.1 +5.4 83 +5 +5 1026.6 1022.1
22 27.04 Ю 3 н/о н/о +9.6 +5.6 76 +8 +8 1026.9 1022.4
23 27.04 Ю 5 н/о н/о +13.3 +5.5 59 +12 +12 1027.7 1023.2
00 28.04 ЮВ 7 н/о н/о +15.9 +4.9 48 +15 +15 1027.6 1023.1
01 28.04 ЮВ 8 н/о н/о +16.8 +4.5 44 +16 +16 1027.3 1022.8
02 28.04 ЮВ 7 н/о н/о +17.9 +4.5 41 +17 +17 1026.2 1021.7
03 28.04 ЮВ 7 н/о н/о +18.3 +4.1 39 +18 +18 1025.1 1020.6
04 28.04 ЮВ 6 н/о н/о +19.4 +4.4 37 +19 +19 1023.9 1019.4
05 28.04 ЮВ 6 н/о н/о +20.1 +3.8 34 +20 +20 1023.3 1018.8
06 28.04 ЮВ 6 н/о н/о +20.0 +3.7 34 +20 +20 1022.7 1018.2
07 28.04 Ю 7 н/о н/о +19.7 +4.2 36 +20 +20 1023.0 1018.5
08 28.04 ЮВ 6 н/о н/о +19.0 +4.0 37 +19 +19 1023.2 1018.7
09 28.04 Ю 4 н/о н/о +17.5 +4.8 43 +17 +17 1023.7 1019.2
10 28.04 Ю 4 н/о н/о +16.4 +4.8 46 +16 +16 1024.3 1019.8
11 28.04 Ю 4 н/о н/о +15.3 +5.0 50 +15 +15 1024.9 1020.4
12 28.04 Ю 4 н/о н/о +14.7 +5.5 54 +14 +14 1024.9 1020.4
13 28.04 Ю 4 н/о н/о +13.9 +5.5 57 +13 +13 1024.9 1020.4
14 28.04 Ю 3 н/о н/о +13.0 +5.4 60 +12 +12 1024.5 1020.0
15 28.04 Ю 4 н/о н/о +12.9 +5.6 61 +11 +11 1023.7 1019.2
16 28.04 Ю 4 н/о н/о +11.7 +5.3 65 +10 +10 1023.5 1019.0
17 28.04 Ю 5 н/о н/о +12.2 +6.0 66 +10 +10 1022.7 1018.2
18 28.04 Ю 6 н/о н/о +12.4 +6.0 65 +10 +10 1022.6 1018.1
19 28.04 ЮВ 5 н/о н/о +11.8 +6.1 68 +10 +10 1023.0 1018.5
20 28.04 ЮВ 5 н/о н/о +11.5 +6.0 69 +9 +9 1023.4 1018.9
21 28.04 ЮВ 5 н/о н/о +11.3 +6.2 71 +9 +9 1024.2 1019.7
22 28.04 ЮВ 5 н/о н/о +12.1 +6.4 68 +10 +10 1025.0 1020.5
23 28.04 ЮВ 6 н/о н/о +14.7 +6.5 58 +13 +13 1025.2 1020.7
00 29.04 ЮВ 7 н/о н/о +17.1 +6.3 49 +16 +16 1025.4 1020.9
01 29.04 В 7 н/о н/о +18.4 +6.3 45 +18 +18 1024.5 1020.0
02 29.04 В 6 н/о н/о +19.3 +5.7 41 +19 +19 1023.9 1019.4
03 29.04 ЮВ 4 н/о н/о +20.7 +5.9 38 +22 +22 комфорт 1022.6 1018.1
04 29.04 ЮВ 4 н/о н/о +20.8 +5.6 37 +22 +22 комфорт 1021.6 1017.1
05 29.04 ЮВ 4 н/о н/о +21.9 +5.3 34 +22 +22 комфорт 1020.9 1016.4
06 29.04 ЮВ 4 н/о н/о +21.7 +5.2 34 +22 +22 комфорт 1020.6 1016.1
07 29.04 ЮВ 4 н/о н/о +21.5 +5.0 34 +22 +22 комфорт 1020.6 1016.1
08 29.04 ЮВ 5 н/о н/о +20.8 +4.8 35 +22 +22 комфорт 1021.2 1016.7
09 29.04 Ю 4 н/о н/о +19.4 +5.1 39 +20 +20 1021.4 1016.9
10 29.04 Ю 4 н/о н/о +18.6 +5.1 41 +19 +19 1021.9 1017.4
11 29.04 Ю 4 н/о н/о +17.2 +5.5 46 +17 +17 1021.9 1017.4
12 29.04 ЮВ 5 н/о н/о +17.4 +6.3 48 +17 +17 1021.7 1017.2
13 29.04 ЮВ 6 н/о н/о +17.0 +6.2 49 +16 +16 1021.8 1017.3
14 29.04 ЮВ 4 н/о н/о +15.8 +6.5 54 +15 +15 1021.1 1016.6
15 29.04 ЮВ 4 н/о н/о +15.4 +6.7 56 +15 +15 1020.7 1016.2
16 29.04 ЮВ 4 н/о н/о +15.0 +6.6 57 +14 +14 1020.4 1015.9
17 29.04 ЮВ 4 н/о н/о +15.1 +7.2 59 +14 +14 1020.1 1015.6
18 29.04 ЮВ 4 н/о н/о +13.8 +6.7 62 +12 +12 1019.8 1015.3
19 29.04 ЮВ 5 н/о н/о +13.1 +6.7 65 +11 +11 1019.9 1015.4
20 29.04 ЮВ 4 н/о н/о +12.8 +6.8 67 +11 +11 1020.6 1016.1
21 29.04 ЮВ 4 н/о н/о +12.4 +6.9 69 +11 +11 1021.2 1016.7
22 29.04 ЮВ 4 н/о н/о +13.6 +7.2 65 +12 +12 1021.8 1017.3
23 29.04 В 6 н/о н/о +15.9 +8.2 60 +15 +15 1021.7 1017.2
00 30.04 В 7 н/о н/о +18.3 +8.3 52 +18 +18 1021.1 1016.6
01 30.04 В 6 н/о н/о +20.7 +8.0 44 +22 +22 комфорт 1020.9 1016.4
02 30.04 В 4 н/о н/о +21.9 +7.7 40 +23 +23 комфорт 1020.2 1015.7

 

Местоположение метеостанции Moomba Airport (Южная Австралия, Австралия): широта -28.10 долгота 140.20 высота над уровнем моря 38 м.

В архиве по умолчанию представлена погода в Moomba Airport за последнюю неделю. Архивные данные за месяц целиком и за предыдущие месяцы, начиная с января 2011 года, Вы можете получить, выбрав интересующий диапазон дат из раскрывающегося списка и нажав кнопку "Ввод!".

Внимание! Время в таблицах - всемирное. Для получения местного времени необходимо прибавить поправку, которая в Moomba Airport равна 9.5 ч.

Смотрите также архив погоды в соседних городах и на ближайших метеорологических станциях:

Погода в Ballera Gas Field (Квинсленд, Австралия) (176 км)
Погода в Tibooburra Airport (Новый Южный Уэльс, Австралия) (235 км)
Погода в Birdsville Airport (Квинсленд, Австралия) (259 км)
Погода в Marree Aero (Южная Австралия, Австралия) (271 км)
Погода в Leigh Creek Airport (Южная Австралия, Австралия) (327 км)
Погода в Thargomindah Airport (Квинсленд, Австралия) (355 км)
Погода в Fowlers Gap Aws (Новый Южный Уэльс, Австралия) (362 км)
Погода в White Cliffs Aws (Новый Южный Уэльс, Австралия) (413 км)
Погода в Olympic Dam Aerodrome (Южная Австралия, Австралия) (417 км)
Погода в Broken Hill Airport (Новый Южный Уэльс, Австралия) (450 км)

Пояснения к столбцам:

Ветер - указаны скорость ветра в м/с - средняя за 10 мин, порывы в срок и между сроками (в фигурных скобках) и направление, откуда дует ветер: С - северный, СВ - северо-восточный, В - восточный, ЮВ - юго-восточный, Ю - южный, ЮЗ - юго-западный, З - западный, СЗ - северо-западный.
Видимость - горизонтальная дальность видимости в метрах или километрах. При видимости от 1 до 10 км при отсутствии осадков обычно наблюдается дымка, при ухудшении видимости до 1 км и менее - туман. В сухую погоду видимость может ухудшаться дымом, пылью или мглою.
Явления - указаны атмосферные явления, наблюдавшиеся в срок или в последний час перед сроком; фигурными скобками обозначены явления, наблюдавшиеся между сроками (за 1-3 часа до срока); квадратными скобками обозначены град или гололедные отложения с указанием их диаметра в мм.
Облачность - указаны через наклонную черту общая и нижняя облачность в баллах и высота нижней границы облаков в метрах; квадратными скобками обозначены формы облаков: Ci - перистые, Cs - перисто-слоистые, Cc - перисто-кучевые, Ac - высококучевые, As - высокослоистые, Sc - слоисто-кучевые, Ns - слоисто-дождевые, Cu - кучевые, Cb - кучево-дождевые. Подробнее классификацию облаков см. в Атласе облаков (PDF).
T - Температура воздуха - температура, измеренная на высоте 2 м над землей.
Td - Температура точки росы - температура, при понижении до которой содержащийся в воздухе водяной пар достигнет насыщения.
f - Относительная влажность воздуха - влажноcть воздуха, измеренная на высоте 2 м над землей.
Te - Эффективная температура - температура, которую ощущает одетый по сезону человек в тени. Характеристика душности погоды. При расчете учитывается влияние влажности воздуха и скорости ветра на теплоощущения человека.
Tes - Эффективная температура на солнце - температура, которую ощущает человек, с поправкой на солнечный нагрев. Характеристика знойности погоды. Зависит от высоты солнца над горизонтом, облачности и скорости ветра. Ночью, в пасмурную погоду, а также при ветре 12 м/с и более поправка равна нулю.
P - Атмосферное давление - приведенное к уровню моря атмосферное давление.
Po - Атмосферное давление - измеренное на уровне метеостанции атмосферное давление.
Tmin - Минимальная температура - минимум температуры воздуха на высоте 2 м над землей.
Tmax - Максимальная температура - максимум температуры воздуха на высоте 2 м над землей.
R - Количество осадков - Количество выпавших осадков за период времени, мм. При наведении курсора мыши на число - период времени, за который выпало указанное количество осадков.
R24 - Количество осадков - Количество выпавших осадков за 24 часа, мм.
S - Снежный покров - Высота снежного покрова, см. При наведении курсора мыши на число - состояние снежного покрова и степень покрытия местности в баллах.